Terminal Aerodrome Forecast
Issued by NWS

Home | Current Version | Previous Version | Text Only | Print | Product List | Glossary On
Versions: 1 2 3 4 5 6 7 8 9 10 11 12 13 14 15 16 17 18 19 20 21
000
FTPA31 PHFO 012300
TAFKOA
TAF
PHKO 012337Z 0200/0224 21011KT P6SM SCT060 SCT100
     FM020600 08006KT P6SM SCT060
     FM022000 23011KT P6SM SCT060=

USA.gov is the U.S. government's official web portal to all federal, state and local government web resources and services.